This demonstration page uses our WeatherBlox Daily Observations layout. Learn more.

Left ArrowRight Arrow

39.12711, -84.51439

Hourly Observations for January 28, 2022

Temp ( °F °C ) Dew Point ( °F °C ) Humidity (%) Winds ( mph kmh ) Pressure ( in mb ) Visibility ( mi km ) Precip ( " mm )
12:01 am 00:01 Cloudy with Light Snow 31 -0.6 30 -1.1 96 96 SW 3 6 30.24 1024 2 3 0.00 0.00
12:21 am 00:21 Cloudy with Light Snow 31 -0.6 30 -1.1 96 96 Calm 30.24 1024 2 3 0.01 0.25
12:30 am 00:30 Cloudy with Light Snow 31 -0.6 30 -1.1 96 96 Calm 30.24 1024 2 2 0.01 0.25
12:53 am 00:53 Cloudy with Light Snow 31 -0.6 30 -1.1 96 96 Calm 30.22 1023 1 2 0.02 0.51
1:38 am 01:38 Cloudy with Light Snow 30 -1.1 30 -1.1 100 100 Calm 30.23 1024 2 3 0.01 0.25
1:48 am 01:48 Cloudy with Light Snow 30 -1 30 -1 100 100 Calm 30.22 1023 2 3 0.01 0.25
1:53 am 01:53 Cloudy with Light Snow 31 -0.6 30 -1.1 96 96 Calm 30.21 1023 2 3 0.01 0.25
2:17 am 02:17 Cloudy with Light Snow 30 -1.1 30 -1.1 100 100 Calm 30.22 1023 2 3 0.00 0.00
2:31 am 02:31 Cloudy with Light Snow 30 -1.1 30 -1.1 100 100 Calm 30.22 1023 3 4 0.01 0.25
2:53 am 02:53 Cloudy with Light Snow 30 -1.1 30 -1.1 100 100 Calm 30.19 1023 3 4 0.01 0.25
3:02 am 03:02 Cloudy with Light Snow 30 -1.1 30 -1.1 100 100 Calm 30.21 1023 3 5 0.00 0.00
3:53 am 03:53 Cloudy with Light Snow 30 -1.1 30 -1.1 100 100 Calm 30.18 1022 4 6 0.00 0.00
4:53 am 04:53 Cloudy with Light Snow 30 -1.1 29 -1.7 96 96 Calm 30.16 1022 3 5 0.00 0.00
5:01 am 05:01 Cloudy with Light Snow 30 -1.1 29 -1.7 96 96 Calm 30.19 1022 2 3 0.00 0.00
5:53 am 05:53 Cloudy with Light Snow 30 -1.1 29 -1.7 96 96 Calm 30.17 1022 2 3 0.01 0.25
6:03 am 06:03 Cloudy with Light Snow 30 -1.1 29 -1.7 96 96 Calm 30.19 1022 3 5 0.00 0.00
6:22 am 06:22 Cloudy with Light Snow 30 -1.1 29 -1.7 96 96 Calm 30.19 1022 3 4 0.01 0.25
6:50 am 06:50 Cloudy with Light Snow 28 -2 28 -2 100 100 Calm 30.19 1022 2 2 0.01 0.25
6:51 am 06:51 Cloudy with Light Snow 29 -1.7 29 -1.7 100 100 Calm 30.17 1022 2 2 0.01 0.25
7:04 am 07:04 Cloudy with Mist and Fog 30 -1.1 29 -1.7 96 96 Calm 30.19 1022 2 3 0.00 0.00
7:29 am 07:29 Cloudy with Light Snow 29 -1.7 29 -1.7 100 100 Calm 30.19 1022 1 2 0.00 0.00
7:36 am 07:36 Cloudy with Light Snow 29 -1.7 29 -1.7 100 100 Calm 30.20 1023 1 2 0.00 0.00
7:53 am 07:53 Cloudy with Light Snow 29 -1.7 29 -1.7 100 100 Calm 30.18 1022 2 2 0.00 0.00
8:04 am 08:04 Cloudy with Light Snow 29 -1.7 29 -1.7 100 100 Calm 30.20 1023 1 2 0.00 0.00
8:14 am 08:14 Cloudy with Light Snow 30 -1.1 29 -1.7 96 96 Calm 30.20 1023 1 1 0.01 0.25
8:31 am 08:31 Cloudy with Light Snow 30 -1.1 28 -2.2 92 92 Calm 30.20 1023 1 2 0.01 0.25
8:53 am 08:53 Cloudy with Light Snow 30 -1.1 29 -1.7 96 96 Calm 30.18 1022 1 2 0.01 0.25
9:13 am 09:13 Cloudy with Mist and Fog 30 -1.1 28 -2.2 92 92 Calm 30.20 1023 3 4 0.01 0.25
9:26 am 09:26 Cloudy with Mist and Fog 30 -1.1 28 -2.2 92 92 N 5 7 30.20 1023 3 5 0.01 0.25
9:34 am 09:34 Cloudy with Mist and Fog 30 -1.1 28 -2.2 92 92 NNE 5 7 30.20 1023 4 6 0.01 0.25
9:45 am 09:45 Mostly Cloudy with Light Snow 30 -1.1 28 -2.2 92 92 NNE 6 9 30.20 1023 2 3 0.01 0.25
9:53 am 09:53 Cloudy with Light Snow 30 -1.1 28 -2.2 92 92 NNE 5 7 30.18 1022 1 2 0.01 0.25
10:13 am 10:13 Cloudy with Light Snow 30 -1.1 27 -2.8 88 88 NNE 5 7 30.19 1022 2 3 0.00 0.00
10:53 am 10:53 Cloudy with Light Snow 31 -0.6 27 -2.8 85 85 NNE 5 7 30.18 1022 3 4 0.00 0.00
11:08 am 11:08 Cloudy with Light Snow 31 -0.6 27 -2.8 85 85 NNE 5 7 30.20 1023 2 3 0.00 0.00
11:51 am 11:51 Cloudy with Light Snow 30 -1 28 -2 93 93 NNE 6 9 30.19 1022 1 2 0.00 0.00
11:53 am 11:53 Cloudy with Light Snow 31 -0.6 28 -2.2 89 89 NNE 6 9 30.17 1022 1 1 0.00 0.00
12:02 pm 12:02 Cloudy with Light Snow 31 -0.6 28 -2.2 89 89 NE 5 7 30.19 1022 1 2 0.00 0.00
12:15 pm 12:15 Cloudy with Light Snow 30 -1.1 28 -2.2 92 92 ENE 3 6 30.18 1022 2 3 0.00 0.00
12:34 pm 12:34 Cloudy with Light Snow 31 -0.6 28 -2.2 89 89 Calm 30.17 1022 2 2 0.00 0.00
12:41 pm 12:41 Cloudy with Light Snow 31 -0.6 28 -2.2 89 89 Calm 30.17 1022 1 2 0.00 0.00
12:53 pm 12:53 Cloudy with Light Snow 31 -0.6 28 -2.2 89 89 Calm 30.15 1021 1 2 0.01 0.25
1:53 pm 13:53 Cloudy with Light Snow 29 -1.7 27 -2.8 92 92 N 13 20 30.13 1020 1 2 0.00 0.00
2:49 pm 14:49 Cloudy with Light Snow 27 -3 23 -5 86 86 N 13 20 30.15 1021 3 5 0.00 0.00
2:53 pm 14:53 Cloudy with Light Snow 27 -2.8 23 -5 85 85 N 12 19 30.14 1021 3 4 0.00 0.00
3:34 pm 15:34 Cloudy with Light Snow 24 -4.4 21 -6.1 88 88 N 15 24 30.18 1022 1 2 0.00 0.00
3:53 pm 15:53 Cloudy with Light Snow 23 -5 21 -6.1 92 92 N 15 24 30.16 1021 1 2 0.00 0.00
4:53 pm 16:53 Mostly Cloudy with Light Snow 21 -6.1 18 -7.8 88 88 N 15 24 30.19 1022 1 1 0.00 0.00
5:53 pm 17:53 Cloudy with Light Snow 20 -6.7 17 -8.3 89 89 N 14 22 30.22 1024 3 4 0.00 0.00
6:53 pm 18:53 Cloudy with Light Snow 19 -7.2 15 -9.4 84 84 N 12 19 30.24 1024 3 4 0.00 0.00
7:44 pm 19:44 Cloudy with Light Snow 19 -7.2 14 -10 81 81 N 8 13 30.28 1026 6 10 0.00 0.00
7:53 pm 19:53 Cloudy with Mist and Fog 19 -7.2 14 -10 81 81 N 10 17 30.26 1025 6 10 0.00 0.00
8:49 pm 20:49 Cloudy 18 -8 12 -11 79 79 N 9 15 30.31 1026 10 16 0.00 0.00
8:53 pm 20:53 Cloudy 18 -7.8 12 -11.1 77 77 N 8 13 30.27 1025 10 16 0.00 0.00
9:53 pm 21:53 Cloudy 16 -8.9 11 -11.7 80 80 N 9 15 30.28 1026 10 16 0.00 0.00
10:00 pm 22:00 Mostly Cloudy 16 -8.9 11 -11.7 80 80 N 12 19 30.32 1027 10 16 0.00 0.00
10:53 pm 22:53 Clear 16 -8.9 11 -11.7 80 80 N 13 20 30.30 1026 10 16 0.00 0.00
11:53 pm 23:53 Clear 15 -9.4 8 -13.3 74 74 N 12 19 30.31 1026 10 16 0.00 0.00

Powered by AerisWeather